Weather History for Columbia, MO

Change the Weather History Date:

Thursday, November 3, 2011

  Actual Average Record
Temperature  
Mean Temperature 41 °F 50 °F  
Max Temperature 45 °F 60 °F 79 °F (1978)
Min Temperature 37 °F 40 °F 12 °F (1991)
Degree Days  
Heating Degree Days 24 15  
Month to date heating degree days 35 44  
Since 1 July heating degree days 388 409  
Cooling Degree Days 0 0  
Month to date cooling degree days 0 0  
Year to date cooling degree days 1508 1247  
Moisture  
Dew Point 40 °F    
Average Humidity 85    
Maximum Humidity 100    
Minimum Humidity 70    
Precipitation  
Precipitation 1.19 in 0.10 in 1.36 in (1938)
Month to date precipitation 1.52 0.30  
Year to date precipitation 33.19 37.23  
Snow  
Snow 0.00 in 0.00 in 0.50 in (1992)
Month to date snowfall 0.0 0.0  
Since 1 July snowfall 0.0 0.0  
Since 1 September snowfall 0.0 0.0  
Snow Depth 0.00 in    
Sea Level Pressure  
Sea Level Pressure 29.97 in    
Wind  
Wind Speed 18 mph (NNW)    
Max Wind Speed 31 mph    
Max Gust Speed 39 mph    
Visibility 8 miles    
Events Rain    
T = Trace of Precipitation, MM = Missing Value Source: NWS Daily Summary

Daily Weather History Graph

Daily Weather History Graph

Search for Another Location

Airport:

Trip Planner

Search our weather history database for the weather conditions in past years. The results will help you decide how hot, cold, wet, or windy it might be!

Date:

Astronomy

Nov. 03, 2011 Rise Set
Actual Time 7:37 AM CDT 6:06 PM CDT
Civil Twilight 7:10 AM CDT 6:34 PM CDT
Nautical Twilight 6:38 AM CDT 7:05 PM CDT
Astronomical Twilight 6:07 AM CDT 7:36 PM CDT
Moon 2:26 PM CDT (11/3) 12:54 AM CDT (11/3)
Length of Visible Light 11h 24m
Length of Day
10h 28m
First Quarter, 60% of the Moon is Illuminated
Nov 3
First Quarter
Nov 10
Full
Nov 18
Last Quarter
Nov 25
New
Dec 2
First Quarter

Hourly Weather History & Observations

Time (CDT) Temp. Windchill Dew Point Humidity Pressure Visibility Wind Dir Wind Speed Gust Speed Precip Events Conditions
12:01 AM 42.8 °F 34.5 °F 42.8 °F 100% 29.93 in 8.0 mi North 18.4 mph - 0.01 in Rain Light Rain
12:21 AM 44.6 °F 37.4 °F 42.8 °F 93% 29.92 in 7.0 mi NNE 16.1 mph - 0.05 in Rain Rain
12:54 AM 44.1 °F 35.4 °F 43.0 °F 96% 29.82 in 9.0 mi NE 21.9 mph 36.8 mph 0.10 in Rain Light Rain
1:04 AM 44.6 °F 36.4 °F 42.8 °F 93% 29.82 in 10.0 mi NE 20.7 mph 35.7 mph 0.01 in Rain Light Rain
1:54 AM 45.0 °F 36.6 °F 44.1 °F 97% 29.76 in 10.0 mi NE 21.9 mph 29.9 mph 0.01 in   Overcast
2:54 AM 45.0 °F 38.5 °F 45.0 °F 100% 29.77 in 8.0 mi NE 13.8 mph - 0.02 in Rain Light Rain
3:54 AM 44.6 °F 37.2 °F 44.6 °F 100% 29.77 in 5.0 mi North 17.3 mph 24.2 mph N/A Rain Heavy Rain
4:08 AM 44.6 °F 36.1 °F 44.6 °F 100% 29.77 in 2.5 mi North 21.9 mph 27.6 mph 0.13 in Rain Heavy Rain
4:21 AM 42.8 °F 34.0 °F 42.8 °F 100% 29.77 in 3.0 mi NNW 20.7 mph - 0.21 in Rain Heavy Rain
4:54 AM 42.1 °F 33.6 °F 42.1 °F 100% 29.80 in 3.0 mi NNW 18.4 mph 28.8 mph 0.34 in Rain Heavy Rain
5:13 AM 41.0 °F 31.6 °F 41.0 °F 100% 29.80 in 3.0 mi NNW 20.7 mph 32.2 mph 0.11 in Rain Heavy Rain
5:50 AM 39.2 °F 29.0 °F 39.2 °F 100% 29.82 in 6.0 mi NNW 21.9 mph 31.1 mph 0.23 in Rain Rain
5:54 AM 39.9 °F 29.7 °F 39.9 °F 100% 29.82 in 7.0 mi NNW 23.0 mph 32.2 mph 0.24 in Rain Light Rain
6:42 AM 39.2 °F 28.0 °F 39.2 °F 100% 29.83 in 8.0 mi NNW 26.5 mph 34.5 mph 0.16 in Rain Rain
6:54 AM 39.9 °F 28.2 °F 39.0 °F 97% 29.83 in 9.0 mi NNW 31.1 mph 39.1 mph 0.18 in Rain Light Rain
7:54 AM 39.0 °F 28.5 °F 39.0 °F 100% 29.86 in 7.0 mi NNW 23.0 mph 34.5 mph 0.07 in Rain Rain
8:54 AM 39.0 °F 28.3 °F 37.9 °F 96% 29.90 in 7.0 mi NNW 24.2 mph 36.8 mph 0.10 in Rain Light Rain
9:54 AM 37.9 °F 26.1 °F 37.9 °F 100% 29.95 in 9.0 mi NNW 27.6 mph 33.4 mph 0.11 in Rain Rain
10:35 AM 39.2 °F 28.5 °F 39.2 °F 100% 29.95 in 10.0 mi NNW 24.2 mph 32.2 mph 0.04 in Rain Light Rain
10:42 AM 39.2 °F 29.0 °F 39.2 °F 100% 29.95 in 10.0 mi North 21.9 mph 29.9 mph 0.04 in Rain Light Rain
10:54 AM 39.9 °F 29.2 °F 39.0 °F 97% 29.97 in 10.0 mi North 25.3 mph 34.5 mph 0.05 in Rain Light Rain
11:52 AM 39.2 °F 29.0 °F 39.2 °F 100% 29.98 in 10.0 mi NNW 21.9 mph 32.2 mph 0.01 in Rain Light Rain
11:54 AM 39.9 °F 29.7 °F 39.9 °F 100% 30.00 in 10.0 mi NNW 23.0 mph 31.1 mph 0.01 in Rain Light Rain
12:21 PM 41.0 °F 30.7 °F 39.2 °F 93% 29.99 in 10.0 mi NNW 25.3 mph 33.4 mph 0.01 in Rain Light Rain
12:54 PM 41.0 °F 31.6 °F 39.9 °F 96% 30.01 in 10.0 mi NNW 20.7 mph 32.2 mph 0.02 in Rain Light Rain
1:54 PM 42.1 °F 33.3 °F 41.0 °F 96% 30.02 in 10.0 mi North 19.6 mph 27.6 mph 0.00 in   Overcast
2:45 PM 42.8 °F 34.3 °F 39.2 °F 87% 30.03 in 10.0 mi North 19.6 mph 26.5 mph N/A   Overcast
2:54 PM 43.0 °F 35.4 °F 39.9 °F 89% 30.04 in 10.0 mi North 16.1 mph 28.8 mph N/A   Overcast
3:54 PM 44.1 °F 37.1 °F 39.9 °F 85% 30.08 in 10.0 mi NNW 15.0 mph 25.3 mph N/A   Overcast
4:54 PM 44.1 °F 36.5 °F 39.9 °F 85% 30.11 in 10.0 mi NNW 17.3 mph - N/A   Overcast
5:54 PM 44.1 °F 37.4 °F 39.0 °F 82% 30.15 in 10.0 mi NNW 13.8 mph - N/A   Overcast
6:54 PM 45.0 °F 38.9 °F 39.0 °F 80% 30.18 in 10.0 mi NNW 12.7 mph - N/A   Overcast
7:22 PM 44.6 °F 38.4 °F 39.2 °F 81% 30.17 in 10.0 mi NNW 12.7 mph - N/A   Overcast
7:54 PM 45.0 °F 39.3 °F 39.0 °F 80% 30.19 in 10.0 mi NNW 11.5 mph - N/A   Overcast
8:54 PM 44.6 °F 38.8 °F 37.4 °F 76% 30.18 in 10.0 mi NNW 11.5 mph - N/A   Overcast
9:54 PM 43.0 °F 37.7 °F 36.0 °F 76% 30.20 in 10.0 mi North 9.2 mph - N/A   Overcast
10:54 PM 44.1 °F 39.5 °F 36.0 °F 73% 30.22 in 10.0 mi NNW 8.1 mph - N/A   Overcast
11:23 PM 44.6 °F 39.7 °F 35.6 °F 71% 30.21 in 10.0 mi NNW 9.2 mph - N/A   Overcast
11:54 PM 44.1 °F 39.0 °F 35.1 °F 71% 30.21 in 10.0 mi North 9.2 mph - N/A   Overcast